Regional Weather Roundup
Issued by NWS Glasgow, MT

Home | Current Version | Previous Version | Text Only | Print | Product List | Glossary On
Versions: 1 2 3 4 5 6 7 8 9 10 11 12 13 14 15 16 17 18 19 20 21 22 23 24 25 26 27 28 29 30 31 32 33 34 35 36 37 38 39 40 41 42 43 44 45 46 47 48 49 50
000
ASUS45 KGGW 200515
RWRGGW
HOURLY WEATHER ROUNDUP FOR NORTHEAST MONTANA
NATIONAL WEATHER SERVICE GLASGOW MONTANA
1100 PM MDT TUE AUG 19 2014

NOTE: "FAIR" INDICATES FEW OR NO CLOUDS BELOW 12,000 FEET WITH NO
SIGNIFICANT WEATHER AND/OR OBSTRUCTIONS TO VISISBILITY.

NORTHEAST MONTANA


CITY           SKY/WX    TMP DP  RH WIND       PRES   REMARKS
GLASGOW        PTCLDY    78  44  29 CALM      29.59F
PLENTYWOOD       N/A     72  60  66 SE10        N/A
WOLF POINT     PTCLDY    66  46  48 W5        29.58F
JORDAN           N/A     75  52  44 W6        29.64R
WINNETT          N/A     72  45  37 SW5         N/A
SIDNEY         PTCLDY    70  61  73 SW3       29.64F
GLENDIVE       MOCLDY    75  55  50 S9        29.66S
MALTA            N/A     66  52  60 CALM        N/A

FORT PECK REPORTS


CITY           SKY/WX    TMP DP  RH WIND       PRES   REMARKS
FORT PECK        N/A     78  53  41 SE3         N/A
THE PINES        N/A     79  38  22 CALM        N/A

SOUTHEAST MONTANA


CITY           SKY/WX    TMP DP  RH WIND       PRES   REMARKS
BILLINGS       CLOUDY    73  44  35 SW10      29.74F
MILES CITY     CLOUDY    82  45  27 S3        29.64S
BAKER          PTCLDY    66  56  70 SE10      29.71S
LIVINGSTON     MOCLDY    71  42  35 SW32G45   29.82F

CENTRAL MONTANA


CITY           SKY/WX    TMP DP  RH WIND       PRES   REMARKS
HAVRE          LGT RAIN  73  52  47 NW17G31   29.64R
LEWISTOWN      MOCLDY    71  41  33 NE3       29.76S
GREAT FALLS    MOCLDY    65  46  50 CALM      29.76S
CUT BANK       MOCLDY    63  49  60 W12       29.76F
HELENA         CLOUDY    70  49  47 CALM      29.78S
BUTTE          MOCLDY    61  43  51 CALM      29.93R
BOZEMAN        CLOUDY    66  47  50 SW6       29.86S

WESTERN MONTANA


CITY           SKY/WX    TMP DP  RH WIND       PRES   REMARKS
MISSOULA       PTCLDY    65  45  48 CALM      29.79R
KALISPELL      NOT AVBL

NORTH DAKOTA


CITY           SKY/WX    TMP DP  RH WIND       PRES   REMARKS
WILLISTON      CLEAR     76  60  57 SE5       29.64F
DICKINSON      PTCLDY    68  58  70 SE7       29.69F
MINOT          CLEAR     67  60  78 SE5       29.70S
BISMARCK       PTCLDY    69  62  78 E6        29.73S

SOUTHERN SASKATCHEWAN


CITY           SKY/WX    TMP DP  RH WIND       PRES   REMARKS
REGINA         TSTM      68  63  83 E10       29.64S
ESTEVAN        MOCLDY    68  61  77 SE6       29.68S
SWIFT CURRENT  CLEAR     63  57  82 S6        29.59F



USA.gov is the U.S. government's official web portal to all federal, state and local government web resources and services.